Regional Weather Roundup
Issued by NWS

Home | Current Version | Previous Version | Graphics & Text | Print | Product List | Glossary On
Versions: 1 2 3 4 5 6 7 8 9 10 11 12 13 14 15 16 17 18 19 20 21 22 23 24 25 26 27 28 29 30 31 32 33 34 35 36 37 38 39 40 41 42 43 44 45 46 47 48 49 50
000
ASUS43 KMPX 210301
RWRMN
WEATHER ROUNDUP FOR MINNESOTA
NATIONAL WEATHER SERVICE TWIN CITIES/CHANHASSEN MN
1000 PM CDT THU JUL 20 2017


NOTE: "FAIR" INDICATES FEW OR NO CLOUDS BELOW 12,000 FEET WITH NO
SIGNIFICANT WEATHER AND/OR OBSTRUCTIONS TO VISIBILITY. N/A MEANS
CURRENT SKY AND/OR WEATHER CONDITIONS ARE NOT AVAILABLE.

MNZ060>063-068>070-210400-
   Twin Cities Metro

CITY           SKY/WX    TMP DP  RH WIND       PRES   REMARKS
TWIN CITIES    PTCLDY    80  67  64 SE6       29.96R
ST PAUL        CLEAR     73  70  90 CALM      29.96R
CRYSTAL        CLEAR     73  62  68 CALM      29.95R
BLAINE         PTCLDY    73  66  78 CALM      29.96S
LAKEVILLE      CLEAR     68  68 100 NE3       29.97S
EDEN PRAIRIE   CLEAR     76  70  82 E5        29.95S
SOUTH ST PAUL  CLEAR     75  71  86 CALM      29.96S
LAKE ELMO      FAIR      70  68  94 CALM      29.98S
$$
MNZ001>005-007-008-013>017-022>024-027-028-210400-
   Northwest Minnesota

CITY           SKY/WX    TMP DP  RH WIND       PRES   REMARKS
BEMIDJI        CLOUDY    69  60  73 E3        29.99R
HALLOCK        CLOUDY    70  63  78 E6        29.93R
ROSEAU           N/A     68  63  83 CALM      29.96R
WARROAD        MOCLDY    66  63  88 CALM      29.97R
CROOKSTON      CLOUDY    75  63  64 E3        29.93S
FOSSTON        CLOUDY    70  61  73 CALM      29.97R
DETROIT LAKES  CLOUDY    77  68  73 SE3       29.98R
MOORHEAD       CLOUDY    77  66  69 E5        29.93S
PARK RAPIDS    CLOUDY    78  62  57 CALM      29.98S
MAHNOMEN       FAIR      75  65  72 S5        29.96R
$$
MNZ006-009>011-018-025>026-210400-
   North Central Minnesota

CITY           SKY/WX    TMP DP  RH WIND       PRES   REMARKS
BAUDETTE       PTCLDY    62  58  86 S3        29.97R
FLAG ISLAND    PTCLDY    70  64  83 CALM      29.95R
INTL FALLS     CLEAR     56  53  90 CALM      29.97R
WASKISH        CLEAR     64  57  77 CALM      29.98R
BIG FORK       CLEAR     63  61  94 CALM      29.98S
LONGVILLE      PTCLDY    66  64  94 CALM      29.98R
GRAND RAPIDS   CLEAR     66  63  90 CALM      30.00R
CRANE LAKE     CLEAR     57  57 100 CALM      29.98S
ORR            CLEAR     63  55  77 CALM      29.97R
COOK           CLEAR     64  63  94 CALM      29.99R
WALKER         FAIR      69  64  84 CALM      29.98R
$$
MNZ012-019>021-037-210400-
   Northeast Minnesota

CITY           SKY/WX    TMP DP  RH WIND       PRES   REMARKS
DULUTH         CLEAR     70  62  76 W7        29.98R
ELY            CLEAR     63  57  82 CALM      29.98R
HIBBING        CLEAR     63  61  93 CALM      29.98R
EVELETH        CLEAR     63  58  83 SW3       30.00R
DULUTH HARBOR  CLEAR     75  70  83 SW5       29.95R
TWO HARBORS    CLEAR     72  63  73 CALM      29.95R
GRAND MARAIS     N/A     68  56  65 NW3       29.93R
G MARAIS ARPRT CLEAR     61  54  77 CALM      30.00R
$$
MNZ029>031-032-039>041-046>048-054>057-064-210400-
   West Central Minnesota

CITY           SKY/WX    TMP DP  RH WIND       PRES   REMARKS
FERGUS FALLS   PTCLDY    75  68  78 E5        29.93F
WHEATON        CLOUDY    68  64  88 E7        29.95R
MORRIS         CLEAR     72  68  88 E7        29.94R
ALEXANDRIA     CLEAR     72  67  84 E3        29.99R
ELBOW LAKE     FAIR      74  69  84 SE5       29.96R
WADENA         CLOUDY    70  70 100 CALM      29.97S
GLENWOOD       CLEAR     70  68  94 E6        29.98R
APPLETON       CLEAR     72  66  83 CALM      29.94R
BENSON         CLEAR     73  66  78 E3        29.96R
ORTONVILLE     CLEAR     73  66  78 SE3       29.94R
MADISON        CLEAR     72  66  83 SE3       29.94R
WILLMAR        FAIR      73  70  88 E6        29.95F
$$
MNZ033>034-036-042>043-049>051-058-059-210400-
   Central Minnesota

CITY           SKY/WX    TMP DP  RH WIND       PRES   REMARKS
ST CLOUD       CLEAR     69  69 100 CALM      29.96S
SAUK CENTRE    FAIR      70  67  89 CALM      29.97S
PAYNESVILLE    CLEAR     72  69  89 CALM      29.97S
AITKIN         PTCLDY    64  63  94 CALM      29.97S
PINE RIVER     MOCLDY    70  64  83 MISG      30.01R
BRAINERD       CLOUDY    70  66  87 CALM      29.98S
STAPLES        PTCLDY    72  66  83 CALM      29.98S
LONG PRAIRIE   FAIR      70  68  94 CALM      29.99R
LITTLE FALLS   CLOUDY    68  64  88 CALM      29.99R
LITCHFIELD     PTCLDY    73  72  94 CALM      29.96S
BUFFALO        CLEAR     71  66  84 CALM      29.97S
MAPLE LAKE     CLEAR     70  69  97 CALM      29.97S
HUTCHINSON     CLOUDY    74  70  87 E6        29.96S
$$
MNZ037-044-045-052-053-210400-
   East Central Minnesota

CITY           SKY/WX    TMP DP  RH WIND       PRES   REMARKS
PRINCETON      CLEAR     70  66  88 CALM      29.97S
MORA           CLOUDY    70  68  94 CALM      29.99S
CAMBRIDGE      CLEAR     73  64  73 CALM      29.95F
RUSH CITY      CLEAR     68  65  92 CALM      29.97F
MOOSE LAKE     PTCLDY    64  63  94 CALM      29.96S FOG
HINCKLEY       FAIR      68  68 100 CALM      29.97S
CLOQUET        PTCLDY    72  61  68 W5        29.98S
MCGREGOR       PTCLDY    68  64  88 CALM      29.99S
$$
MNZ071>073-080-081-089-090-097-098-210400-
   Southwest Minnesota

CITY           SKY/WX    TMP DP  RH WIND       PRES   REMARKS
MONTEVIDEO     CLEAR     70  64  83 SW6       29.95R
GRANITE FALLS  CLEAR     70  68  93 SE3       29.96R
CANBY          CLEAR     73  68  87 CALM      29.95S
MARSHALL       CLEAR     75  70  84 SE8       29.95R
REDWOOD FALLS  CLEAR     72  68  87 SE5       29.95R
OLIVIA         CLEAR     72  66  83 E3        29.95R
PIPESTONE      PTCLDY    75  70  83 SE5       29.97R
WINDOM         CLEAR     72  68  88 E5        29.97R
WORTHINGTON    CLEAR     74  72  93 E5        29.98R
JACKSON        CLEAR     73  70  88 CALM      29.99R
TRACY          CLEAR     74  71  91 SE5       29.97R
SLAYTON        CLEAR     73  69  87 E6        29.98R
$$
MNZ065>067-074>077-082>085-091>093-210400-
   South Central Minnesota

CITY           SKY/WX    TMP DP  RH WIND       PRES   REMARKS
MANKATO        CLEAR     72  70  93 SE8       29.97R
NEW ULM        CLEAR     73  70  88 S3        29.96R
ST JAMES       CLEAR     73  70  88 E6        29.97R
FAIRMONT       CLEAR     75  73  93 SE7       29.97R
GLENCOE        CLEAR     73  72  94 CALM      29.95S
FARIBAULT      CLEAR     72  70  94 NE3       29.97R
OWATONNA       CLEAR     73  70  88 SE7       29.99R
WASECA         CLEAR     72  70  94 SE3       29.99R
ALBERT LEA     CLEAR     73  70  88 SE5       29.99R
$$
MNZ078>079-086>088-094>096-210400-
   Southeast Minnesota

CITY           SKY/WX    TMP DP  RH WIND       PRES   REMARKS
ROCHESTER      CLEAR     69  69 100 S7        30.00R
RED WING       CLEAR     70  66  88 CALM      29.97R
STANTON        CLEAR     71  68  91 CALM      29.96R
DODGE CENTER   CLEAR     70  66  88 S5        29.99R
WINONA         CLEAR     72  70  94 CALM      29.97S
AUSTIN         CLEAR     72  66  83 E5        29.99R
PRESTON        CLEAR     73  70  91 SE3       30.01R
$$
ABBREVIATIONS USED IN REMARKS
   TC - TEMPERATURES IN CELSIUS
  WCI - WIND CHILL INDEX
   HX - HEAT INDEX
  VSB - VISIBILITY
$$




USA.gov is the U.S. government's official web portal to all federal, state and local government web resources and services.